Weather History for Starkville, MS

Change the Weather History Date:

Sunday, October 14, 2012

  Actual Average Record
Temperature  
Mean Temperature 70 °F -  
Max Temperature 77 °F 77 °F 82 °F (2013)
Min Temperature 64 °F 50 °F 44 °F (2011)
Cooling Degree Days 6    
Growing Degree Days 20 (Base 50)    
Moisture  
Dew Point 66 °F    
Average Humidity 90    
Maximum Humidity 100    
Minimum Humidity 74    
Precipitation  
Precipitation 0.10 in - - ()
Sea Level Pressure  
Sea Level Pressure 30.04 in    
Wind  
Wind Speed 5 mph (South)    
Max Wind Speed 12 mph    
Max Gust Speed 16 mph    
Visibility 8 miles    
Events Rain , Thunderstorm    
Averages and records for this station are not official NWS values.
T = Trace of Precipitation, MM = Missing Value Source: NWS Daily Summary

Daily Weather History Graph

Daily Weather History Graph

Search for Another Location

Airport:

Trip Planner

Search our weather history database for the weather conditions in past years. The results will help you decide how hot, cold, wet, or windy it might be!

Date:

Astronomy

Oct. 14, 2012 Rise Set
Actual Time 6:59 AM CDT 6:22 PM CDT
Civil Twilight 6:34 AM CDT 6:47 PM CDT
Nautical Twilight 6:05 AM CDT 7:16 PM CDT
Astronomical Twilight 5:36 AM CDT 7:44 PM CDT
Moon 5:59 AM CDT (10/14) 5:42 PM CDT (10/14)
Length of Visible Light 12h 12m
Length of Day
11h 22m
Waning Crescent, 1% of the Moon is Illuminated
Oct 14
Waning Crescent
Oct 15
New
Oct 21
First Quarter
Oct 29
Full
Nov 6
Last Quarter

Hourly Weather History & Observations

Time (CDT) Temp. Dew Point Humidity Pressure Visibility Wind Dir Wind Speed Gust Speed Precip Events Conditions
12:15 AM 66.2 °F 64.4 °F 94% 30.09 in 10.0 mi SSE 4.6 mph - N/A   Clear
12:35 AM 66.2 °F 64.4 °F 94% 30.08 in 10.0 mi South 3.5 mph - N/A   Clear
1:15 AM 68.0 °F 64.4 °F 88% 30.08 in 10.0 mi South 5.8 mph - N/A   Clear
1:35 AM 68.0 °F 64.4 °F 88% 30.08 in 10.0 mi South 5.8 mph - N/A   Clear
1:55 AM 68.0 °F 64.4 °F 88% 30.08 in 10.0 mi SE 4.6 mph - N/A   Clear
2:15 AM 64.4 °F 62.6 °F 94% 30.07 in 7.0 mi SE 5.8 mph - N/A   Clear
2:35 AM 64.4 °F 64.4 °F 100% 30.07 in 7.0 mi SSE 6.9 mph - N/A   Clear
2:55 AM 66.2 °F 64.4 °F 94% 30.05 in 7.0 mi SE 9.2 mph - N/A   Clear
3:15 AM 64.4 °F 62.6 °F 94% 30.05 in 7.0 mi SSE 8.1 mph - N/A   Clear
3:35 AM 64.4 °F 62.6 °F 94% 30.05 in 7.0 mi SSE 6.9 mph - N/A   Clear
3:55 AM 64.4 °F 62.6 °F 94% 30.04 in 7.0 mi SSE 9.2 mph - N/A   Clear
4:15 AM 64.4 °F 64.4 °F 100% 30.04 in 7.0 mi South 10.4 mph - N/A   Scattered Clouds
4:35 AM 64.4 °F 64.4 °F 100% 30.05 in 7.0 mi SSE 6.9 mph - N/A   Scattered Clouds
4:55 AM 64.4 °F 64.4 °F 100% 30.05 in 7.0 mi SSE 6.9 mph - N/A   Mostly Cloudy
5:15 AM 66.2 °F 64.4 °F 94% 30.07 in 7.0 mi Calm Calm - N/A   Overcast
5:35 AM 66.2 °F 64.4 °F 94% 30.07 in 7.0 mi Calm Calm - N/A   Mostly Cloudy
6:15 AM 64.4 °F 64.4 °F 100% 30.09 in 7.0 mi Calm Calm - N/A   Clear
6:35 AM 64.4 °F 64.4 °F 100% 30.10 in 7.0 mi Calm Calm - N/A   Clear
6:55 AM 64.4 °F 62.6 °F 94% 30.11 in 4.0 mi Calm Calm - N/A   Scattered Clouds
7:15 AM 64.4 °F 62.6 °F 94% 30.13 in 4.0 mi Calm Calm - N/A   Overcast
7:35 AM 64.4 °F 64.4 °F 100% 30.14 in 4.0 mi Calm Calm - N/A   Overcast
8:15 AM 66.2 °F 64.4 °F 94% 30.14 in 5.0 mi Calm Calm - N/A   Scattered Clouds
8:35 AM 68.0 °F 64.4 °F 88% 30.14 in 5.0 mi South 3.5 mph - N/A   Scattered Clouds
8:55 AM 68.0 °F 66.2 °F 94% 30.14 in 7.0 mi South 5.8 mph - N/A   Clear
9:15 AM 69.8 °F 66.2 °F 88% 30.14 in 7.0 mi SSE 8.1 mph - N/A   Clear
9:35 AM 73.4 °F 68.0 °F 83% 30.14 in 10.0 mi South 9.2 mph - N/A   Clear
9:55 AM 73.4 °F 68.0 °F 83% 30.13 in 10.0 mi South 9.2 mph - N/A   Mostly Cloudy
10:15 AM 75.2 °F 68.0 °F 78% 30.13 in 10.0 mi SSE 10.4 mph - N/A   Mostly Cloudy
10:35 AM 75.2 °F 68.0 °F 78% 30.12 in 10.0 mi South 8.1 mph - N/A   Mostly Cloudy
10:55 AM 77.0 °F 68.0 °F 74% 30.11 in 10.0 mi South 11.5 mph 16.1 mph N/A   Mostly Cloudy
11:15 AM 69.8 °F 64.4 °F 83% 30.13 in - SW 10.4 mph - 0.04 in   Unknown
11:35 AM 66.2 °F 64.4 °F 94% 30.10 in 5.0 mi SSW 5.8 mph - 0.08 in Rain Rain
11:55 AM 66.2 °F 62.6 °F 88% 30.09 in 10.0 mi SSW 8.1 mph - 0.08 in   Mostly Cloudy
12:15 PM 64.4 °F 62.6 °F 94% 30.09 in 10.0 mi SSW 10.4 mph 16.1 mph N/A Rain Light Rain
12:35 PM 64.4 °F 62.6 °F 94% 30.06 in 10.0 mi South 8.1 mph - N/A Rain Light Rain
12:55 PM 64.4 °F 62.6 °F 94% 30.04 in 10.0 mi South 4.6 mph - 0.01 in Rain Light Rain
1:15 PM 66.2 °F 64.4 °F 94% 30.01 in 10.0 mi South 6.9 mph - N/A   Light Drizzle
1:35 PM 68.0 °F 64.4 °F 88% 30.01 in 10.0 mi SSW 5.8 mph - N/A   Clear
1:55 PM 69.8 °F 66.2 °F 88% 30.00 in 10.0 mi South 8.1 mph - N/A   Clear
2:15 PM 71.6 °F 68.0 °F 88% 30.00 in 10.0 mi SSW 8.1 mph - N/A   Clear
2:35 PM 73.4 °F 68.0 °F 83% 29.99 in 10.0 mi South 8.1 mph - N/A   Clear
2:55 PM 75.2 °F 68.0 °F 78% 29.99 in 10.0 mi South 5.8 mph - N/A   Clear
3:15 PM 77.0 °F 68.0 °F 74% 29.99 in 10.0 mi SSW 6.9 mph - N/A   Scattered Clouds
3:35 PM 77.0 °F 69.8 °F 78% 29.98 in 10.0 mi SSW 4.6 mph - N/A   Mostly Cloudy
3:55 PM 77.0 °F 68.0 °F 74% 29.98 in 10.0 mi South 8.1 mph - N/A   Scattered Clouds
4:15 PM 77.0 °F 69.8 °F 78% 29.98 in 10.0 mi SSW 4.6 mph - N/A   Scattered Clouds
4:35 PM 77.0 °F 69.8 °F 78% 29.97 in 10.0 mi South 4.6 mph - N/A   Scattered Clouds
4:55 PM 77.0 °F 69.8 °F 78% 29.97 in 10.0 mi South 3.5 mph - N/A   Clear
5:15 PM 77.0 °F 69.8 °F 78% 29.96 in 10.0 mi South 4.6 mph - N/A   Clear
5:35 PM 77.0 °F 69.8 °F 78% 29.96 in 10.0 mi SSW 3.5 mph - N/A   Scattered Clouds
5:55 PM 77.0 °F 69.8 °F 78% 29.96 in 10.0 mi South 3.5 mph - N/A   Overcast
6:15 PM 73.4 °F 69.8 °F 88% 29.96 in 10.0 mi Calm Calm - N/A   Mostly Cloudy
6:35 PM 73.4 °F 69.8 °F 88% 29.94 in 10.0 mi South 3.5 mph - N/A   Mostly Cloudy
6:55 PM 73.4 °F 68.0 °F 83% 29.95 in 10.0 mi SSW 4.6 mph - N/A Thunderstorm Scattered Clouds
7:15 PM 71.6 °F 68.0 °F 88% 29.96 in 10.0 mi SSW 4.6 mph - N/A   Mostly Cloudy
7:35 PM 71.6 °F 68.0 °F 88% 29.96 in 10.0 mi West 3.5 mph - N/A   Mostly Cloudy
7:55 PM 69.8 °F 68.0 °F 94% 29.96 in 10.0 mi Calm Calm - N/A   Scattered Clouds
8:15 PM 69.8 °F 68.0 °F 94% 29.96 in 10.0 mi SSW 3.5 mph - N/A   Clear
8:35 PM 69.8 °F 68.0 °F 94% 29.96 in 7.0 mi Calm Calm - N/A   Clear
8:55 PM 68.0 °F 68.0 °F 100% 29.97 in 7.0 mi SSW 4.6 mph - N/A   Clear
9:15 PM 69.8 °F 68.0 °F 94% 29.96 in 7.0 mi SSW 4.6 mph - N/A   Clear
9:35 PM 69.8 °F 68.0 °F 94% 29.96 in 10.0 mi Calm Calm - N/A Thunderstorm Scattered Clouds
9:55 PM 69.8 °F 68.0 °F 94% 29.97 in 7.0 mi Calm Calm - N/A   Mostly Cloudy
10:15 PM 68.0 °F 68.0 °F 100% 29.98 in 7.0 mi WNW 6.9 mph - N/A Rain , Thunderstorm Light Thunderstorms and Rain
10:35 PM 69.8 °F 66.2 °F 88% 29.98 in 7.0 mi Calm Calm - 0.01 in Rain Light Rain
10:55 PM 68.0 °F 66.2 °F 94% 29.98 in 7.0 mi Calm Calm - 0.01 in Rain Light Rain
11:35 PM 66.2 °F 64.4 °F 94% 29.97 in 7.0 mi West 4.6 mph - N/A   Overcast
11:55 PM 66.2 °F 64.4 °F 94% 29.97 in 10.0 mi Calm Calm - N/A   Mostly Cloudy